This is the latest recevied weather packets stored in our database for station/object ZL2ASC-13. If no packets are shown the sender has not sent any weather packets the latest 10 day(s).
| Time | Temp. | Humidity | Pressure | Rain* | Wind** | Luminosity | Snow |
|---|---|---|---|---|---|---|---|
| 1788474294 | 15.56° C | 62% | 1003.1 hPa | 0 mm | - | - | - |
| 1788474234 | 15.56° C | 62% | 1003 hPa | 0 mm | - | - | - |
| 1788474174 | 16.11° C | 60% | 1003.1 hPa | 0 mm | - | - | - |
| 1788474114 | 16.11° C | 61% | 1003.1 hPa | 0 mm | - | - | - |
| 1788474054 | 15.56° C | 60% | 1003.2 hPa | 0 mm | - | - | - |
| 1788473994 | 15.56° C | 62% | 1003.2 hPa | 0 mm | - | - | - |
| 1788473934 | 15.56° C | 65% | 1003.2 hPa | 0 mm | - | - | - |
| 1788473874 | 15.56° C | 64% | 1003.3 hPa | 0 mm | - | - | - |
| 1788473815 | 15.56° C | 65% | 1003.3 hPa | 0 mm | - | - | - |
| 1788473753 | 15.56° C | 65% | 1003.3 hPa | 0 mm | - | - | - |
| 1788473693 | 16.11° C | 66% | 1003.4 hPa | 0 mm | - | - | - |
| 1788473633 | 16.11° C | 67% | 1003.4 hPa | 0 mm | - | - | - |
| 1788473573 | 16.11° C | 65% | 1003.5 hPa | 0 mm | - | - | - |
| 1788473513 | 16.11° C | 63% | 1003.4 hPa | 0 mm | - | - | - |
| 1788473453 | 16.11° C | 64% | 1003.5 hPa | 0 mm | - | - | - |
| 1788473425 | 16.11° C | 67% | 1003.4 hPa | 0 mm | - | - | - |
| 1788473333 | 16.11° C | 68% | 1003.6 hPa | 0 mm | - | - | - |
| 1788473273 | 15.56° C | 69% | 1003.5 hPa | 0 mm | - | - | - |
| 1788473213 | 15.56° C | 71% | 1003.5 hPa | 0 mm | - | - | - |
| 1788473153 | 15.56° C | 70% | 1003.5 hPa | 0 mm | - | - | - |
| 1788473093 | 15.56° C | 71% | 1003.3 hPa | 0 mm | - | - | - |
| 1788473033 | 15.56° C | 71% | 1003.4 hPa | 0 mm | - | - | - |
| 1788472973 | 15.56° C | 71% | 1003.4 hPa | 0 mm | - | - | - |
| 1788472913 | 15.56° C | 71% | 1003.3 hPa | 0 mm | - | - | - |
| 1788472853 | 15.56° C | 70% | 1003.3 hPa | 0 mm | - | - | - |
* Rain latest hour (hover to see other rain measurements)
** Current wind speed in m/s (hover to see current wind gust speed)